Niagara Falls, NY

8:41 PM EST on November 22, 2019 (GMT -0500)
Niagara Falls International

Weather History for KIAG - September, 2019

Change the Weather History Date:

Tuesday, September 10, 2019

  Actual Average Record
Temperature  
Mean Temperature 64 °F -  
Max Temperature 80 °F 73 °F 90 °F (2002)
Min Temperature 48 °F 54 °F 44 °F (2008)
Degree Days  
Heating Degree Days 2    
Growing Degree Days 14 (Base 50)    
Moisture  
Dew Point 56 °F    
Average Humidity 73    
Maximum Humidity 93    
Minimum Humidity 52    
Precipitation  
Precipitation 0.00 in - - ()
Sea Level Pressure  
Sea Level Pressure 30.19 in    
Wind  
Wind Speed 6 mph (South)    
Max Wind Speed 17 mph    
Max Gust Speed 25 mph    
Visibility 10 miles    
Events      
Averages and records for this station are not official NWS values.
T = Trace of Precipitation, MM = Missing Value Source: NWS Daily Summary

Daily Weather History Graph

Daily Weather History Graph

Search for Another Location

Airport or City:

Astronomy

Sep. 10, 2019 Rise Set
Actual Time 6:49 AM EDT 7:35 PM EDT
Civil Twilight 6:20 AM EDT 8:03 PM EDT
Nautical Twilight 5:46 AM EDT 8:37 PM EDT
Astronomical Twilight 5:11 AM EDT 9:13 PM EDT
Moon 6:16 PM EDT (9/10) 3:07 AM EDT (9/10)
Length of Visible Light 13h 42m
Length of Day
12h 45m
Waxing Gibbous, 89% of the Moon is Illuminated
Sep 10
Waxing Gibbous
Sep 14
Full
Sep 21
Last Quarter
Sep 28
New
Oct 5
First Quarter

Hourly Weather History & Observations

Time (EDT) Temp. Dew Point Humidity Pressure Visibility Wind Dir Wind Speed Gust Speed Precip Events Conditions
12:53 AM 53.1 °F 48.9 °F 86% 30.30 in 10.0 mi Calm Calm - N/A   Clear
1:53 AM 52.0 °F 46.9 °F 83% 30.31 in 10.0 mi East 3.5 mph - N/A   Clear
2:53 AM 51.1 °F 46.9 °F 86% 30.30 in 10.0 mi East 4.6 mph - N/A   Clear
3:53 AM 50.0 °F 46.0 °F 86% 30.28 in 10.0 mi East 5.8 mph - N/A   Clear
4:53 AM 50.0 °F 46.0 °F 86% 30.26 in 10.0 mi ESE 4.6 mph - N/A   Clear
5:53 AM 50.0 °F 46.9 °F 89% 30.26 in 10.0 mi Calm Calm - N/A   Clear
6:53 AM 48.9 °F 46.9 °F 93% 30.26 in 8.0 mi Calm Calm - N/A   Clear
7:53 AM 53.1 °F 50.0 °F 89% 30.27 in 10.0 mi East 3.5 mph - N/A   Clear
8:53 AM 57.9 °F 53.1 °F 84% 30.26 in 10.0 mi SSE 3.5 mph - N/A   Clear
9:53 AM 64.0 °F 57.0 °F 78% 30.26 in 10.0 mi SSW 3.5 mph - N/A   Clear
10:53 AM 69.1 °F 59.0 °F 70% 30.22 in 10.0 mi South 4.6 mph - N/A   Clear
11:53 AM 73.0 °F 57.9 °F 59% 30.20 in 10.0 mi South 6.9 mph - N/A   Clear
12:53 PM 77.0 °F 59.0 °F 54% 30.18 in 10.0 mi SSW 12.7 mph - N/A   Clear
1:53 PM 78.1 °F 60.1 °F 54% 30.18 in 10.0 mi SW 15.0 mph - N/A   Mostly Cloudy
2:53 PM 79.0 °F 60.1 °F 52% 30.16 in 10.0 mi SSW 16.1 mph - N/A   Scattered Clouds
3:53 PM 79.0 °F 61.0 °F 54% 30.15 in 10.0 mi SW 17.3 mph 25.3 mph N/A   Partly Cloudy
4:53 PM 78.1 °F 62.1 °F 58% 30.14 in 10.0 mi SW 15.0 mph 21.9 mph N/A   Clear
5:53 PM 77.0 °F 62.1 °F 60% 30.11 in 10.0 mi SW 12.7 mph - N/A   Partly Cloudy
6:53 PM 75.0 °F 63.0 °F 66% 30.09 in 10.0 mi SW 10.4 mph - N/A   Partly Cloudy
7:53 PM 73.9 °F 63.0 °F 68% 30.07 in 10.0 mi SSW 9.2 mph - N/A   Clear
8:53 PM 73.9 °F 64.0 °F 71% 30.07 in 10.0 mi SSW 11.5 mph - N/A   Scattered Clouds
9:53 PM 73.0 °F 64.9 °F 76% 30.06 in 10.0 mi SSW 9.2 mph - N/A   Partly Cloudy
10:53 PM 72.0 °F 64.9 °F 78% 30.05 in 10.0 mi SSW 9.2 mph - N/A   Clear
11:53 PM 73.9 °F 64.9 °F 73% 30.04 in 10.0 mi SSW 12.7 mph - N/A   Clear